Shirley, NY

1:04 AM EDT on July 26, 2017 (GMT -0400)
Brookhaven

Weather History for KHWV - March, 2013

Change the Weather History Date:

Friday, March 8, 2013

  Actual Average (KISP) Record (KISP)
Temperature  
Mean Temperature 36 °F -  
Max Temperature 39 °F 41 °F 69 °F (1987)
Min Temperature 32 °F 26 °F 8 °F (1990)
Degree Days  
Heating Degree Days 30    
Moisture  
Dew Point 30 °F    
Average Humidity 86    
Maximum Humidity 93    
Minimum Humidity 60    
Precipitation  
Precipitation 0.27 in - - ()
Sea Level Pressure  
Sea Level Pressure 29.99 in    
Wind  
Wind Speed 12 mph (NNW)    
Max Wind Speed 20 mph    
Max Gust Speed 30 mph    
Visibility 3 miles    
Events Rain , Snow    
Averages and records for this station are not official NWS values.
T = Trace of Precipitation, MM = Missing Value Source: NWS Daily Summary

Daily Weather History Graph

Daily Weather History Graph

Search for Another Location

Airport or City:

Trip Planner

Search our weather history database for the weather conditions in past years. The results will help you decide how hot, cold, wet, or windy it might be!

Date:

Astronomy

Mar. 08, 2013 Rise Set
Actual Time 6:14 AM EST 5:50 PM EST
Civil Twilight 5:46 AM EST 6:18 PM EST
Nautical Twilight 5:15 AM EST 6:49 PM EST
Astronomical Twilight 4:43 AM EST 7:21 PM EST
Moon 3:57 AM EST (3/8) 2:41 PM EST (3/8)
Length of Visible Light 12h 31m
Length of Day
11h 36m
Waning Crescent, 12% of the Moon is Illuminated
Mar 8
Waning Crescent
Mar 11
New
Mar 19
First Quarter
Mar 27
Full
Apr 3
Last Quarter

Hourly Weather History & Observations

Time (EST) Temp. Windchill Dew Point Humidity Pressure Visibility Wind Dir Wind Speed Gust Speed Precip Events Conditions
12:03 AM 33.8 °F 26.4 °F 30.2 °F 87% 30.00 in 1.8 mi NNW 9.2 mph - 0.00 in Snow Light Snow
12:32 AM 33.8 °F 25.3 °F 30.2 °F 87% 29.99 in 2.0 mi NNW 11.5 mph - 0.02 in Snow Light Snow
12:56 AM 33.1 °F 24.4 °F 30.9 °F 92% 29.99 in 2.0 mi NNW 11.5 mph - 0.02 in Snow Light Snow
1:10 AM 33.8 °F 26.4 °F 30.2 °F 87% 29.99 in 1.8 mi NNW 9.2 mph - 0.01 in Snow Light Snow
1:27 AM 33.8 °F 25.8 °F 30.2 °F 87% 29.99 in 1.5 mi NNW 10.4 mph - 0.02 in Snow Light Snow
1:56 AM 33.1 °F 24.9 °F 30.9 °F 92% 29.98 in 1.5 mi NNW 10.4 mph - 0.03 in Snow Light Snow
2:05 AM 33.8 °F 25.8 °F 30.2 °F 87% 29.97 in 1.2 mi NNW 10.4 mph - 0.01 in Snow Light Snow
2:16 AM 33.8 °F 25.3 °F 30.2 °F 87% 29.97 in 1.0 mi NNW 11.5 mph - 0.01 in Snow Light Snow
2:49 AM 33.8 °F 25.3 °F 30.2 °F 87% 29.96 in 1.2 mi NNW 11.5 mph - 0.03 in Snow Light Snow
2:56 AM 33.1 °F 24.4 °F 30.9 °F 92% 29.96 in 1.2 mi NNW 11.5 mph - 0.03 in Snow Light Snow
3:37 AM 33.8 °F 25.8 °F 30.2 °F 87% 29.95 in 1.0 mi NNW 10.4 mph - 0.03 in Snow Light Snow
3:56 AM 33.1 °F 23.9 °F 30.9 °F 92% 29.96 in 1.2 mi NNW 12.7 mph - 0.05 in Snow Light Snow
4:12 AM 33.8 °F 24.3 °F 30.2 °F 87% 29.95 in 1.0 mi NNW 13.8 mph - 0.00 in Snow Light Snow
4:52 AM 32.0 °F 22.5 °F 30.2 °F 93% 29.95 in 2.0 mi NNW 12.7 mph - 0.02 in Snow Light Snow
4:56 AM 32.0 °F 22.5 °F 30.0 °F 92% 29.96 in 2.0 mi NNW 12.7 mph - 0.02 in Snow Light Snow
5:07 AM 32.0 °F 23.0 °F 30.2 °F 93% 29.95 in 1.8 mi NNW 11.5 mph - 0.00 in Snow Light Snow
5:56 AM 32.0 °F 23.0 °F 30.0 °F 92% 29.95 in 1.8 mi NNW 11.5 mph - 0.01 in Snow Light Snow
6:56 AM 32.0 °F 23.0 °F 30.0 °F 92% 29.95 in 1.8 mi NNW 11.5 mph - 0.01 in Snow Light Snow
7:25 AM 32.0 °F 22.5 °F 30.2 °F 93% 29.96 in 0.8 mi NNW 12.7 mph - 0.01 in Snow Light Snow
7:56 AM 32.0 °F 22.5 °F 30.0 °F 92% 29.97 in 0.8 mi NNW 12.7 mph - 0.02 in Snow Light Snow
8:10 AM 32.0 °F 22.1 °F 30.2 °F 93% 29.96 in 1.0 mi NNW 13.8 mph - 0.00 in Snow Light Snow
8:31 AM 33.8 °F 24.8 °F 30.2 °F 87% 29.96 in 2.5 mi North 12.7 mph - 0.01 in Snow Light Snow
8:40 AM 33.8 °F 24.3 °F 30.2 °F 87% 29.96 in 3.0 mi North 13.8 mph 21.9 mph 0.01 in Snow Light Snow
8:56 AM 33.1 °F 23.4 °F 30.9 °F 92% 29.96 in 2.5 mi NNW 13.8 mph - 0.01 in Snow Light Snow
9:13 AM 33.8 °F 24.8 °F 30.2 °F 87% 29.96 in 3.0 mi NNW 12.7 mph 20.7 mph 0.00 in Snow Light Snow
9:56 AM 33.1 °F 23.0 °F 30.9 °F 92% 29.97 in 3.0 mi NNW 15.0 mph - 0.00 in Snow Light Snow
10:11 AM 33.8 °F 23.5 °F 30.2 °F 87% 29.96 in 2.0 mi NNW 16.1 mph 25.3 mph 0.00 in Snow Light Snow
10:18 AM 33.8 °F 23.9 °F 30.2 °F 87% 29.96 in 1.8 mi NNW 15.0 mph 25.3 mph 0.00 in Snow Light Snow
10:22 AM 33.8 °F 24.8 °F 30.2 °F 87% 29.97 in 2.0 mi North 12.7 mph 20.7 mph 0.00 in Snow Light Snow
10:31 AM 33.8 °F 23.9 °F 30.2 °F 87% 29.97 in 3.0 mi North 15.0 mph 23.0 mph 0.00 in Snow Light Snow
10:53 AM 33.8 °F 24.3 °F 30.2 °F 87% 29.97 in 2.5 mi NNW 13.8 mph 25.3 mph 0.00 in Snow Light Snow
10:56 AM 34.0 °F 24.2 °F 30.9 °F 89% 29.97 in 2.5 mi NNW 15.0 mph - 0.00 in Snow Light Snow
11:01 AM 33.8 °F 23.2 °F 30.2 °F 87% 29.97 in 1.8 mi NNW 17.3 mph 23.0 mph 0.00 in Snow Light Snow
11:56 AM 34.0 °F 23.4 °F 30.9 °F 89% 29.99 in 1.2 mi North 17.3 mph 29.9 mph 0.01 in Snow Light Snow
12:30 PM 33.8 °F 23.9 °F 30.2 °F 87% 29.98 in 0.8 mi North 15.0 mph 23.0 mph 0.00 in Snow Light Snow
12:40 PM 33.8 °F 23.9 °F 30.2 °F 87% 29.98 in 1.0 mi North 15.0 mph 25.3 mph 0.01 in Snow Light Snow
12:56 PM 34.0 °F 24.2 °F 30.9 °F 89% 29.99 in 1.0 mi North 15.0 mph 24.2 mph 0.01 in Snow Light Snow
1:56 PM 34.0 °F 23.8 °F 30.9 °F 89% 29.99 in 1.2 mi North 16.1 mph 25.3 mph 0.01 in Snow Light Snow
2:08 PM 33.8 °F 23.9 °F 30.2 °F 87% 29.99 in 0.8 mi North 15.0 mph 24.2 mph 0.01 in Snow Light Snow
2:16 PM 33.8 °F 24.3 °F 32.0 °F 93% 29.99 in 1.2 mi North 13.8 mph 21.9 mph 0.01 in Snow Light Snow
2:56 PM 34.0 °F 23.0 °F 32.0 °F 92% 30.01 in 1.8 mi North 18.4 mph 27.6 mph 0.02 in Snow Light Snow
3:03 PM 35.6 °F 25.5 °F 32.0 °F 87% 30.00 in 2.5 mi North 17.3 mph 23.0 mph 0.00 in Snow Light Snow
3:11 PM 35.6 °F 24.8 °F 32.0 °F 87% 30.00 in 3.0 mi North 19.6 mph 25.3 mph 0.00 in Snow Light Snow
3:56 PM 35.1 °F 25.9 °F 32.0 °F 89% 30.02 in 5.0 mi North 13.8 mph - 0.00 in Snow Light Snow
4:39 PM 35.6 °F 27.5 °F 32.0 °F 87% 30.03 in 9.0 mi North 11.5 mph - 0.01 in Snow Light Snow
4:56 PM 36.0 °F 28.0 °F 32.0 °F 86% 30.05 in 10.0 mi North 11.5 mph - 0.02 in   Overcast
5:56 PM 37.0 °F 29.3 °F 30.0 °F 76% 30.07 in 10.0 mi North 11.5 mph - 0.00 in Rain Light Rain
6:56 PM 37.0 °F 30.4 °F 30.0 °F 76% 30.09 in 10.0 mi North 9.2 mph - 0.00 in   Overcast
7:56 PM 39.9 °F 31.8 °F 27.0 °F 60% 30.11 in 10.0 mi North 15.0 mph 24.2 mph 0.00 in   Overcast
8:56 PM 37.9 °F 29.6 °F 28.0 °F 68% 30.12 in 10.0 mi NNW 13.8 mph - N/A   Overcast
9:56 PM 39.0 °F 30.6 °F 27.0 °F 62% 30.12 in 10.0 mi North 15.0 mph 24.2 mph N/A   Scattered Clouds
10:56 PM 39.0 °F 31.0 °F 27.0 °F 62% 30.12 in 10.0 mi North 13.8 mph - N/A   Clear
11:56 PM 37.9 °F 29.2 °F 26.1 °F 62% 30.13 in 10.0 mi North 15.0 mph - N/A   Clear